Regional Weather Roundup
Issued by NWS

Home | Current Version | Previous Version | Graphics & Text | Print | Product List | Glossary On
Versions: 1 2 3 4 5 6 7 8 9 10 11 12 13 14 15 16 17 18 19 20 21 22 23 24 25 26 27 28 29 30 31 32 33 34 35 36 37 38 39 40 41 42 43 44 45 46 47 48 49 50
000
ASUS43 KLMK 191010
RWRKY
KENTUCKY REGIONAL WEATHER ROUNDUP
NATIONAL WEATHER SERVICE LOUISVILLE KY
500 AM EST THU JAN 19 2017

NOTE "FAIR" INDICATES FEW OR NO CLOUDS BELOW 12,000 FEET
WITH NO SIGNIFICANT WEATHER AND/OR OBSTRUCTIONS TO VISIBILITY.

KYZ001>023-026-027-061>063-070>075-191100-
WESTERN AND SOUTH CENTRAL KENTUCKY

CITY           SKY/WX    TMP DP  RH WIND       PRES   REMARKS
PADUCAH        CLOUDY    46  41  82 E8        29.98F
HENDERSON      CLOUDY    43  36  75 E6        30.03F
OWENSBORO      CLOUDY    42  38  85 E7        30.05F
HOPKINSVILLE   DRIZZLE   46  43  87 E6        30.02S
BOWLING GREEN  CLOUDY    45  40  82 NE5       30.05F
GLASGOW        CLOUDY    44  43  96 CALM      30.05F
$$

KYZ024-025-028>034-038-045-046-053-191100-
NORTH CENTRAL KENTUCKY

CITY           SKY/WX    TMP DP  RH WIND       PRES   REMARKS
LOUISVILLE/SDF CLOUDY    41  36  82 N3        30.08F
LOUISVILLE/LOU MOCLDY    41  36  82 NE3       30.08F
FORT KNOX      CLOUDY    39  37  93 E5        30.04S
$$

KYZ035>037-039>044-047>052-055>060-089>105-191100-
NORTHEAST KENTUCKY

CITY           SKY/WX    TMP DP  RH WIND       PRES   REMARKS
LEXINGTON      CLOUDY    40  36  86 E6        30.08F
COVINGTON      CLOUDY    38  36  92 CALM      30.09S
FRANKFORT      MOCLDY    38  34  85 E3        30.07F
$$

KYZ054-064>069-076>088-106>120-191100-
SOUTHEAST KENTUCKY

CITY           SKY/WX    TMP DP  RH WIND       PRES   REMARKS
JACKSON        PTCLDY    36  35  96 CALM      30.09S FOG
LONDON         CLOUDY    39  36  89 CALM      30.07F
SOMERSET       CLOUDY    37  37 100 CALM      30.09F
MIDDLESBORO    CLOUDY    38  38 100 CALM      30.10F
MONTICELLO     MOSUNNY   40  38  93 N10       30.08F WCI  33
$$




USA.gov is the U.S. government's official web portal to all federal, state and local government web resources and services.